This is the latest recevied weather packets stored in our database for station/object N3MFL. If no packets are shown the sender has not sent any weather packets the latest 10 day(s).
| Time | Temp. | Humidity | Pressure | Rain* | Wind** | Luminosity | Snow |
|---|---|---|---|---|---|---|---|
| 1778092502 | 17.22° C | 76% | 1009.8 hPa | 0 mm | - | 92 W/m² | - |
| 1778092199 | 17.22° C | 75% | 1010 hPa | 0 mm | - | 92 W/m² | - |
| 1778091896 | 17.22° C | 75% | 1010.1 hPa | 0 mm | - | 106 W/m² | - |
| 1778091593 | 17.78° C | 74% | 1010 hPa | 0 mm | - | 123 W/m² | - |
| 1778091291 | 17.78° C | 74% | 1010.1 hPa | 0 mm | - | 134 W/m² | - |
| 1778090988 | 17.78° C | 74% | 1010.1 hPa | 0 mm | - | 141 W/m² | - |
| 1778090684 | 17.78° C | 73% | 1010 hPa | 0 mm | - | 172 W/m² | - |
| 1778090381 | 18.33° C | 72% | 1010.1 hPa | 0 mm | - | 157 W/m² | - |
| 1778090078 | 18.33° C | 72% | 1010.1 hPa | 0 mm | - | 140 W/m² | - |
| 1778089774 | 18.89° C | 71% | 1010.3 hPa | 0 mm | - | 195 W/m² | - |
| 1778089473 | 18.89° C | 70% | 1010.3 hPa | 0 mm | - | 183 W/m² | - |
| 1778089169 | 18.89° C | 71% | 1010.2 hPa | 0 mm | - | 150 W/m² | - |
| 1778088866 | 18.89° C | 70% | 1010.5 hPa | 0 mm | - | 177 W/m² | - |
| 1778088557 | 18.89° C | 70% | 1010.7 hPa | 0 mm | - | 279 W/m² | - |
| 1778088254 | 18.89° C | 70% | 1010.6 hPa | 0 mm | - | 295 W/m² | - |
| 1778087951 | 18.89° C | 71% | 1010.7 hPa | 0 mm | - | 339 W/m² | - |
| 1778087648 | 18.89° C | 71% | 1010.8 hPa | 0 mm | - | 271 W/m² | - |
| 1778087346 | 18.89° C | 70% | 1010.5 hPa | 0 mm | - | 267 W/m² | - |
| 1778087042 | 18.89° C | 71% | 1010.5 hPa | 0 mm | - | 344 W/m² | - |
| 1778086741 | 18.89° C | 70% | 1010.7 hPa | 0 mm | - | 297 W/m² | - |
| 1778086439 | 18.89° C | 69% | 1010.7 hPa | 0 mm | - | 308 W/m² | - |
| 1778086135 | 18.89° C | 69% | 1010.8 hPa | 0 mm | - | 345 W/m² | - |
| 1778085831 | 19.44° C | 69% | 1011 hPa | 0 mm | - | 331 W/m² | - |
| 1778085530 | 18.89° C | 69% | 1011 hPa | 0 mm | - | 336 W/m² | - |
| 1778085223 | 18.89° C | 70% | 1011.2 hPa | 0 mm | - | 331 W/m² | - |
* Rain latest hour (hover to see other rain measurements)
** Current wind speed in m/s (hover to see current wind gust speed)